Regional Weather Roundup
Issued by NWS

Home | Current Version | Previous Version | Text Only | Print | Product List | Glossary On
Versions: 1 2 3 4 5 6 7 8 9 10 11 12 13 14 15 16 17 18 19 20 21 22 23 24 25 26 27 28 29 30 31 32 33 34 35 36 37 38 39 40 41 42 43 44 45 46 47 48 49 50
000
ASUS44 KEWX 301803
RWRTX
SOUTH TEXAS REGIONAL WEATHER ROUNDUP
NATIONAL WEATHER SERVICE AUSTIN/SAN ANTONIO TX
100 PM CDT SAT MAY 30 2015

NOTE: "FAIR" INDICATED FEW OR NO CLOUDS BELOW 12,000 FEET WITH NO
SIGNIFICANT WEATHER AND/OR OBSTRUCTIONS TO VISIBILITY.

* - THESE STATIONS ARE NOT NWS OR FAA STATIONS...AND ARE NOT SUBJECT
    TO NWS AND FAA QUALITY CONTROL.

TXZ171-172-183>190-301900-
TEXAS HILL COUNTRY AND EDWARDS PLATEAU

CITY           SKY/WX    TMP DP  RH WIND       PRES   REMARKS
JUNCTION       CLOUDY    75  62  64 W12G17    30.16R
6HR MIN TEMP:  63; 6HR MAX TEMP:  79;

*LLANO         MOSUNNY   81  66  61 NW6       30.13R
BURNET         PTSUNNY   80  63  55 W7        30.11R
6HR MIN TEMP:  67; 6HR MAX TEMP:  81; 6HR PCP: TRACE;

*HORSESHOE BAY SUNNY     80  65  60 N6        30.10R
*KERRVILLE     MOSUNNY   82  67  61 W3        30.11R
6HR MIN TEMP:  64; 6HR MAX TEMP:  82;

*FREDERICKSBRG MOSUNNY   80  63  56 N3        30.11R
*ROCKSPRINGS   TSTM      66  61  82 NW22G32   30.21R
*BOERNE STAGE    N/A     81  66  61 W3        30.09R
*CASTROVILLE   MOSUNNY   86  66  52 SE5       30.07R
HONDO          MOSUNNY   86  68  54 VRB3      30.08R
6HR MIN TEMP:  70; 6HR MAX TEMP:  86; 6HR PCP:  0.02;

*UVALDE        MOSUNNY   80  70  72 CALM      30.07F
6HR MIN TEMP:  72; 6HR MAX TEMP:  81;

DEL RIO          N/A    N/A N/A N/A MISG      30.09F
LAUGHLIN AFB   TSTM      63  55  76 NE30G38   30.11F
6HR MIN TEMP:  63; 6HR MAX TEMP:  77; 6HR PCP:  1.46;

CARRIZO SPRGS  CLOUDY    82  72  69 E3        30.04R
$$

TXZ173-191>194-202-209-217>225-228-301900-
CENTRAL AND SOUTH CENTRAL TEXAS

CITY           SKY/WX    TMP DP  RH WIND       PRES   REMARKS
GEORGETOWN     NOT AVBL
AUSTIN/BERGSTM PTSUNNY   84  68  58 CALM      30.04S
6HR MIN TEMP:  72; 6HR MAX TEMP:  85;

AUSTIN/MABRY   PTSUNNY   86  68  54 N5        30.06S
6HR MIN TEMP:  72; 6HR MAX TEMP:  86;

*AUSTIN/EXEC   MOSUNNY   82  68  61 NW7       30.07S
*LAGO VISTA    CLOUDY    82  66  58 NE6       30.09S
6HR MIN TEMP:  70; 6HR MAX TEMP:  82;

SAN MARCOS     PTSUNNY   88  70  55 S7        30.04R HX  92
NEW BRAUNFELS  MOSUNNY   87  71  58 SW5       30.02S HX  93
6HR MIN TEMP:  74; 6HR MAX TEMP:  87;

RANDOLPH AFB   PTSUNNY   83  71  65 S8        30.04R
6HR MIN TEMP:  73; 6HR MAX TEMP:  85;

PT SAN ANTONIO NOT AVBL
SAN ANTONIO    MOSUNNY   86  70  58 S7        30.05S HX  90
6HR MIN TEMP:  75; 6HR MAX TEMP:  86; 6HR PCP: TRACE;

STINSON FIELD  SUNNY     85  71  63 VRB3      30.03R HX  90
6HR MIN TEMP:  73; 6HR MAX TEMP:  85;

*PLEASANTON    MOSUNNY   85  71  62 CALM      30.04R HX  90
*LA GRANGE     SUNNY     86  73  64 W6        30.00S HX  93
*GIDDINGS      SUNNY     85  68  57 CALM      30.06F
*GONZALES      MOSUNNY   86  74  68 SW5       30.01F HX  94
$$

TXZ163>164-176>182-195>201-210>213-226-227-235-301900-
SOUTHEAST TEXAS

CITY           SKY/WX    TMP DP  RH WIND       PRES   REMARKS
COLLEGE STN    MOSUNNY   84  70  62 VRB3      30.02S
6HR MIN TEMP:  71; 6HR MAX TEMP:  85;

*BRYAN         MOSUNNY   83  71  67 SE3       30.05S
*CALDWELL      PTSUNNY   84  72  65 E3        30.06F
*CROCKETT      NOT AVBL
*BRENHAM         N/A     87  70  57 S5        30.02F HAZE    HX  92
6HR MIN TEMP:  72; 6HR MAX TEMP:  87;

HUNTSVILLE     MOSUNNY   82  69  64 VRB3      30.03S
6HR MIN TEMP:  73; 6HR MAX TEMP:  83; 6HR PCP:  0.06;

CONROE         PTSUNNY   86  69  56 E3        30.01F HX  90
6HR MIN TEMP:  68; 6HR MAX TEMP:  86; 6HR PCP: TRACE;

HOUSTON BUSH   PTSUNNY   88  72  58 E5        29.99F HX  94
6HR MIN TEMP:  73; 6HR MAX TEMP:  88;

HOUSTON HOBBY  PTSUNNY   87  72  60 CALM      30.00F HX  93
6HR MIN TEMP:  73; 6HR MAX TEMP:  88;

*HOUSTON SW AP MOSUNNY   85  72  64 CALM      30.03F HX  91
PEARLAND       SUNNY     88  69  53 S5        30.02F HX  92
6HR MIN TEMP:  74; 6HR MAX TEMP:  90;

HOUSTON HOOKS  SUNNY     87  73  62 VRB3      30.00F HX  94
6HR MIN TEMP:  72; 6HR MAX TEMP:  87;

ELLINGTON FLD  PTSUNNY   88  72  58 CALM      30.02F HX  94
SUGAR LAND     MOSUNNY   87  72  60 S7        29.99F HX  93
6HR MIN TEMP:  73; 6HR MAX TEMP:  89;

*HOUSTON EXEC  MOSUNNY   84  72  65 SE6       30.01F
*CLEVELAND MUN SUNNY     85  74  70 CALM      30.02F HX  93
*WHARTON       MOSUNNY   85  73  65 SE5       30.01F HX  92
*COLUMBUS      FAIR      84  73  69 SE5       30.01S HX  90
$$

TXZ214>216-236>238-301900-
THE UPPER TEXAS COAST

CITY           SKY/WX    TMP DP  RH WIND       PRES   REMARKS
*ORANGE        TSTM      77  66  69 NW9       30.10R
6HR MIN TEMP:  71; 6HR MAX TEMP:  86;

PORT ARTHUR    TSTM      71  69  93 E14G25    30.04S FOG
6HR MIN TEMP:  71; 6HR MAX TEMP:  88; 6HR PCP:  0.30;

GALVESTON      MOSUNNY   84  76  76 S10       30.04F HX  93
6HR MIN TEMP:  78; 6HR MAX TEMP:  85;

ANGLETON       PTSUNNY   82  73  74 SE12      30.02F
6HR MIN TEMP:  69; 6HR MAX TEMP:  85;

*BAY CITY      MOSUNNY   86  73  65 E3        30.02F HX  93
PALACIOS       SUNNY     83  71  67 SE9       30.01F
6HR MIN TEMP:  72; 6HR MAX TEMP:  84; 6HR PCP:  0.67;

$$

TXZ229>234-239>247-301900-
TEXAS COASTAL BEND AND RIO GRANDE PLAINS

CITY           SKY/WX    TMP DP  RH WIND       PRES   REMARKS
VICTORIA       MOSUNNY   87  73  62 E3        30.00F HX  94
6HR MIN TEMP:  72; 6HR MAX TEMP:  88;

*BEEVILLE      MOSUNNY   85  72  65 CALM      30.01F HX  91
6HR MIN TEMP:  71; 6HR MAX TEMP:  86;

ROCKPORT       PTSUNNY   88  73  61 SE9       30.00F HX  95
6HR MIN TEMP:  77; 6HR MAX TEMP:  88;

*PORT ARANSAS  SUNNY     85  75  71 E10       30.01F HX  93
6HR MIN TEMP:  78; 6HR MAX TEMP:  85;

*PORT LAVACA   SUNNY     87  70  57 E6        30.00F HX  92
6HR MIN TEMP:  72; 6HR MAX TEMP:  88;

*INGLESIDE     PTSUNNY   88  73  62 SE12      30.01F HX  95
CORPUS CHRISTI PTSUNNY   87  74  64 E14G20    30.00F HX  95
6HR MIN TEMP:  75; 6HR MAX TEMP:  87;

CORPUS NAS     PTSUNNY   85  76  74 E14       30.00F HX  94
6HR MIN TEMP:  76; 6HR MAX TEMP:  86;

*ROBSTOWN      PTSUNNY   88  74  64 SE7       30.00F HX  96
ALICE          PTSUNNY   88  72  58 E9        29.99F HX  94
6HR MIN TEMP:  73; 6HR MAX TEMP:  89;

KINGSVILLE NAS PTSUNNY   88  75  65 SE13      29.99F HX  97
6HR MIN TEMP:  73; 6HR MAX TEMP:  89;

COTULLA        PTSUNNY   86  71  60 SE8       30.04R HX  91
6HR MIN TEMP:  74; 6HR MAX TEMP:  86;

*FAITH RANCH     N/A     82  72  69 SE6       30.04R
LAREDO         MOSUNNY   86  71  60 E12       30.03R HX  91
6HR MIN TEMP:  74; 6HR MAX TEMP:  87;

$$

TXZ248>255-301900-
DEEP SOUTH TEXAS

CITY           SKY/WX    TMP DP  RH WIND       PRES   REMARKS
BROWNSVILLE    PTSUNNY   88  76  67 SE16      30.00F HX  99
6HR MIN TEMP:  75; 6HR MAX TEMP:  88;

PORT ISABEL    PTSUNNY   86  76  71 SE15      29.99F HX  96
6HR MIN TEMP:  75; 6HR MAX TEMP:  86;

*SOUTH PADRE   PTSUNNY  -24 -24 100 S14       30.01S WCI -49
HARLINGEN      MOSUNNY   89  75  63 E13       29.98F HX  99
6HR MIN TEMP:  74; 6HR MAX TEMP:  90;

*HEBBRONVILLE    N/A     84  70  61 E9        30.02F
MCALLEN        PTSUNNY   90  73  57 SE12      29.99F HX  98
6HR MIN TEMP:  77; 6HR MAX TEMP:  91;

*WESLACO       MOSUNNY   90  71  53 SE9G16    29.99F HX  96
FALFURRIAS     MOSUNNY   88  73  61 SE9G16    29.98F HX  95
6HR MIN TEMP:  73; 6HR MAX TEMP:  88;

EDINBURG       PTSUNNY   89  73  58 SE12      29.99F HX  97
*ZAPATA        PTSUNNY   88  69  54 SE7       29.99S HX  92
$$

TXZ213>215-236>238-242>244-246-247-251-254-255-301900-
CMAN STATIONS

STATION/POSITION TIME  TEMP    WIND        PRES    WAVE
                       AIR SEA DIR/SP/G            HT/PER
                 (UTC) (F)     (DEG/KT/KT) (MB)    (FT/S)
$$

GMZ080-GMZ150>470-301900-
OFFSHORE BUOY REPORTS

STATION/POSITION TIME  TEMP    WIND        PRES    WAVE


USA.gov is the U.S. government's official web portal to all federal, state and local government web resources and services.